| time (UTC) | temp F | wind direction | speed knots | gust knots | rain 1hr in | rain 24hr in | rain mn in | humidity % | barometer mb |
| 20260506081023 | 45 | 90 | 0.0 | 1.7 | 0.00 | 0.02 | 0.00 | 69 | 1014.6 |
| 20260506073112 | 44 | 0.0 | 1.7 | 0.00 | 0.02 | 0.00 | 71 | 1014.5 | |
| 20260506072110 | 43 | 315 | 0.0 | 1.7 | 0.00 | 0.02 | 0.00 | 71 | 1014.4 |
| 20260506071107 | 43 | 338 | 0.0 | 1.7 | 0.00 | 0.02 | 0.00 | 71 | 1014.4 |
| 20260506070106 | 43 | 22 | 0.0 | 1.7 | 0.00 | 0.02 | 0.00 | 72 | 1014.3 |
| 20260506062114 | 43 | 45 | 0.0 | 1.7 | 0.00 | 0.02 | 0.00 | 74 | 1014.1 |
| 20260506061053 | 43 | 0.0 | 0.0 | 0.00 | 0.02 | 0.00 | 74 | 1013.9 | |
| 20260506051037 | 43 | 68 | 0.0 | 1.7 | 0.00 | 0.02 | 0.00 | 74 | 1013.9 |
| 20260506045030 | 43 | 23 | 0.0 | 1.7 | 0.00 | 0.02 | 0.00 | 74 | 1014.0 |
| 20260506044028 | 43 | 68 | 0.0 | 1.7 | 0.00 | 0.02 | 0.00 | 75 | 1014.0 |
| 20260506043105 | 43 | 68 | 0.0 | 1.7 | 0.00 | 0.02 | 0.00 | 75 | 1014.0 |
| 20260506042024 | 43 | 14 | 0.0 | 3.5 | 0.00 | 0.02 | 0.00 | 76 | 1014.0 |
| 20260506041020 | 43 | 68 | 0.0 | 1.7 | 0.00 | 0.02 | 0.00 | 77 | 1013.9 |
| 20260506040017 | 43 | 6 | 0.0 | 1.7 | 0.00 | 0.02 | 0.00 | 77 | 1013.9 |
| 20260506035015 | 43 | 338 | 0.0 | 1.7 | 0.00 | 0.02 | 0.00 | 77 | 1014.0 |
| 20260506034114 | 43 | 338 | 0.0 | 1.7 | 0.00 | 0.02 | 0.00 | 77 | 1014.1 |
| 20260506033111 | 43 | 326 | 0.0 | 1.7 | 0.00 | 0.02 | 0.00 | 77 | 1013.9 |
| 20260506032107 | 43 | 90 | 0.0 | 1.7 | 0.00 | 0.02 | 0.00 | 78 | 1014.0 |
| 20260506031104 | 43 | 90 | 0.0 | 1.7 | 0.00 | 0.02 | 0.00 | 78 | 1014.0 |
| 20260506025100 | 43 | 45 | 0.0 | 1.7 | 0.00 | 0.02 | 0.00 | 77 | 1014.2 |
| 20260506024057 | 43 | 0.0 | 1.7 | 0.00 | 0.02 | 0.00 | 77 | 1014.3 | |
| 20260506023056 | 43 | 0.0 | 0.0 | 0.00 | 0.02 | 0.00 | 77 | 1014.1 | |
| 20260506022051 | 43 | 0.0 | 0.0 | 0.00 | 0.02 | 0.00 | 78 | 1014.1 | |
| 20260506021050 | 43 | 23 | 0.0 | 1.7 | 0.00 | 0.02 | 0.00 | 77 | 1014.1 |
| 20260506020107 | 43 | 23 | 0.0 | 1.7 | 0.00 | 0.02 | 0.00 | 77 | 1014.1 |
| 20260506015044 | 44 | 352 | 0.0 | 3.5 | 0.00 | 0.02 | 0.00 | 76 | 1014.0 |
| 20260506014041 | 44 | 81 | 0.9 | 3.5 | 0.00 | 0.02 | 0.00 | 76 | 1014.1 |
| 20260506013058 | 44 | 8 | 0.0 | 3.5 | 0.00 | 0.02 | 0.00 | 76 | 1014.1 |
| 20260506012036 | 44 | 46 | 0.9 | 3.5 | 0.00 | 0.02 | 0.00 | 76 | 1014.1 |
| 20260506011033 | 44 | 65 | 0.9 | 5.2 | 0.00 | 0.02 | 0.00 | 76 | 1014.1 |
| 20260506010030 | 44 | 38 | 0.9 | 3.5 | 0.00 | 0.02 | 0.00 | 78 | 1014.2 |
| 20260506005028 | 44 | 293 | 0.0 | 1.7 | 0.00 | 0.02 | 0.00 | 78 | 1014.3 |
| 20260506004025 | 44 | 0 | 0.0 | 1.7 | 0.00 | 0.02 | 0.00 | 78 | 1014.3 |
| 20260506003022 | 45 | 68 | 0.0 | 3.5 | 0.00 | 0.02 | 0.00 | 78 | 1014.3 |
| 20260506002020 | 45 | 342 | 0.9 | 3.5 | 0.00 | 0.02 | 0.00 | 78 | 1014.3 |
| 20260506001037 | 45 | 293 | 0.0 | 1.7 | 0.00 | 0.02 | 0.00 | 78 | 1014.3 |
| 20260506000115 | 45 | 11 | 0.0 | 3.5 | 0.00 | 0.02 | 0.00 | 78 | 1014.4 |
| 20260505235117 | 45 | 341 | 0.9 | 3.5 | 0.00 | 0.02 | 0.00 | 78 | 1014.3 |
| 20260505234110 | 45 | 327 | 0.0 | 3.5 | 0.00 | 0.02 | 0.00 | 78 | 1014.2 |
| 20260505233109 | 45 | 322 | 0.0 | 3.5 | 0.00 | 0.02 | 0.00 | 78 | 1014.3 |
| 20260505232105 | 45 | 0.0 | 1.7 | 0.00 | 0.02 | 0.00 | 78 | 1014.3 | |
| 20260505231102 | 45 | 315 | 0.0 | 1.7 | 0.00 | 0.02 | 0.00 | 78 | 1014.3 |
| 20260505230059 | 46 | 0.0 | 1.7 | 0.00 | 0.02 | 0.00 | 78 | 1014.4 | |
| 20260505225058 | 46 | 23 | 0.0 | 1.7 | 0.00 | 0.02 | 0.02 | 77 | 1014.3 |
| 20260505224054 | 46 | 68 | 0.0 | 1.7 | 0.00 | 0.02 | 0.02 | 78 | 1014.3 |
| 20260505223111 | 46 | 55 | 0.0 | 1.7 | 0.00 | 0.02 | 0.02 | 78 | 1014.4 |
| 20260505222049 | 46 | 23 | 0.0 | 1.7 | 0.00 | 0.02 | 0.02 | 78 | 1014.3 |
| 20260505221234 | 46 | 0.0 | 1.7 | 0.00 | 0.02 | 0.02 | 78 | 1014.2 | |
| 20260505220044 | 46 | 338 | 0.0 | 1.7 | 0.00 | 0.02 | 0.02 | 78 | 1014.2 |
| 20260505215046 | 46 | 56 | 0.0 | 3.5 | 0.00 | 0.02 | 0.02 | 79 | 1014.2 |
| 20260505214039 | 46 | 45 | 0.0 | 3.5 | 0.00 | 0.02 | 0.02 | 79 | 1014.1 |
| 20260505213036 | 46 | 0.0 | 1.7 | 0.00 | 0.02 | 0.02 | 79 | 1014.2 | |
| 20260505212034 | 46 | 83 | 0.0 | 3.5 | 0.00 | 0.02 | 0.02 | 79 | 1014.1 |
| 20260505211032 | 46 | 317 | 0.9 | 3.5 | 0.00 | 0.02 | 0.02 | 79 | 1014.0 |
| 20260505210047 | 46 | 11 | 0.9 | 3.5 | 0.00 | 0.02 | 0.02 | 79 | 1014.1 |
| 20260505205045 | 46 | 42 | 0.9 | 5.2 | 0.00 | 0.02 | 0.02 | 79 | 1014.0 |
| 20260505204026 | 46 | 115 | 0.0 | 1.7 | 0.00 | 0.02 | 0.02 | 80 | 1014.0 |
| 20260505203020 | 46 | 52 | 0.0 | 3.5 | 0.00 | 0.02 | 0.02 | 80 | 1014.1 |
| 20260505202017 | 46 | 41 | 0.9 | 3.5 | 0.00 | 0.02 | 0.02 | 79 | 1014.0 |
| 20260505201134 | 47 | 43 | 0.0 | 3.5 | 0.00 | 0.02 | 0.02 | 80 | 1014.0 |
| 20260505200112 | 47 | 62 | 0.0 | 3.5 | 0.00 | 0.02 | 0.02 | 80 | 1014.0 |
| 20260505195109 | 47 | 45 | 0.9 | 3.5 | 0.01 | 0.02 | 0.02 | 81 | 1013.8 |
| 20260505194106 | 47 | 36 | 0.0 | 3.5 | 0.01 | 0.02 | 0.02 | 82 | 1013.8 |
| 20260505193104 | 47 | 10 | 0.9 | 3.5 | 0.02 | 0.02 | 0.02 | 82 | 1013.6 |
| 20260505192101 | 47 | 99 | 0.9 | 5.2 | 0.02 | 0.02 | 0.02 | 83 | 1013.5 |
| 20260505191118 | 47 | 348 | 1.7 | 5.2 | 0.02 | 0.02 | 0.02 | 83 | 1013.4 |
| 20260505190056 | 47 | 75 | 0.9 | 5.2 | 0.02 | 0.02 | 0.02 | 84 | 1013.4 |
| 20260505185053 | 47 | 23 | 1.7 | 3.5 | 0.01 | 0.01 | 0.01 | 84 | 1013.3 |
| 20260505184051 | 48 | 329 | 1.7 | 5.2 | 0.01 | 0.01 | 0.01 | 82 | 1013.2 |
| 20260505183048 | 49 | 11 | 0.9 | 5.2 | 0.00 | 0.00 | 0.00 | 81 | 1013.2 |
| 20260505182045 | 49 | 45 | 0.9 | 3.5 | 0.00 | 0.00 | 0.00 | 80 | 1013.2 |
| 20260505181043 | 50 | 326 | 2.6 | 7.8 | 0.00 | 0.00 | 0.00 | 78 | 1013.2 |
| 20260505180041 | 51 | 21 | 1.7 | 7.0 | 0.00 | 0.00 | 0.00 | 76 | 1013.2 |
| 20260505175038 | 53 | 29 | 0.9 | 1.7 | 0.00 | 0.00 | 0.00 | 73 | 1012.9 |
| 20260505174036 | 53 | 338 | 0.0 | 1.7 | 0.00 | 0.00 | 0.00 | 71 | 1013.1 |
| 20260505173032 | 53 | 338 | 0.0 | 3.5 | 0.00 | 0.00 | 0.00 | 71 | 1013.2 |
| 20260505172030 | 53 | 0.0 | 1.7 | 0.00 | 0.00 | 0.00 | 71 | 1013.0 | |
| 20260505171047 | 53 | 53 | 0.9 | 3.5 | 0.00 | 0.00 | 0.00 | 69 | 1012.8 |
| 20260505170025 | 53 | 324 | 0.9 | 3.5 | 0.00 | 0.00 | 0.00 | 71 | 1013.0 |
| 20260505165023 | 53 | 1 | 1.7 | 6.1 | 0.00 | 0.00 | 0.00 | 71 | 1012.9 |
| 20260505164021 | 53 | 356 | 2.6 | 6.1 | 0.00 | 0.00 | 0.00 | 70 | 1013.1 |
| 20260505163017 | 53 | 352 | 2.6 | 7.0 | 0.00 | 0.00 | 0.00 | 69 | 1012.9 |
| 20260505162114 | 53 | 341 | 1.7 | 3.5 | 0.00 | 0.00 | 0.00 | 70 | 1013.0 |
| 20260505161112 | 54 | 359 | 2.6 | 7.0 | 0.00 | 0.00 | 0.00 | 69 | 1012.9 |
| 20260505160109 | 54 | 2 | 2.6 | 7.8 | 0.00 | 0.00 | 0.00 | 66 | 1012.6 |
| 20260505153102 | 55 | 348 | 2.6 | 9.6 | 0.00 | 0.00 | 0.00 | 64 | 1013.1 |
| 20260505152059 | 55 | 351 | 3.5 | 9.6 | 0.00 | 0.00 | 0.00 | 64 | 1013.1 |
| 20260505151057 | 54 | 352 | 2.6 | 9.6 | 0.00 | 0.00 | 0.00 | 67 | 1012.8 |
| 20260505124018 | 53 | 324 | 2.6 | 6.1 | 0.00 | 0.00 | 0.00 | 69 | 1013.7 |
| 20260505123016 | 53 | 348 | 1.7 | 7.0 | 0.00 | 0.00 | 0.00 | 70 | 1013.6 |
| 20260505122115 | 53 | 350 | 2.6 | 6.1 | 0.00 | 0.00 | 0.00 | 69 | 1013.6 |
| 20260505121111 | 53 | 5 | 2.6 | 5.2 | 0.00 | 0.00 | 0.00 | 69 | 1013.4 |
| 20260505120109 | 53 | 7 | 0.9 | 3.5 | 0.00 | 0.00 | 0.00 | 69 | 1013.6 |
| 20260505115106 | 52 | 358 | 1.7 | 5.2 | 0.00 | 0.00 | 0.00 | 71 | 1013.7 |
| 20260505114103 | 52 | 351 | 1.7 | 3.5 | 0.00 | 0.00 | 0.00 | 73 | 1013.4 |